813  
ASUS42 KFFC 230510  
RWRGA  
WEATHER ROUNDUP FOR GEORGIA  
NATIONAL WEATHER SERVICE PEACHTREE CITY GA  
1200 AM EST THU JAN 23 2020  
 
NOTE: "FAIR" INDICATES FEW OR NO CLOUDS BELOW 12,000 FEET WITH NO  
SIGNIFICANT WEATHER AND/OR S TO VISIBILITY
.  
 
* = USE WITH CAUTION. THE STATIONS MARKED WITH AN ASTERISK MAY NOT  
REPORT WEATHER SUCH AS PRECIPITATION, FOG, OR THUNDER AND ARE NOT  
QUALITY CONTROLLED BY NWS.  
 
THE REMARK "TC" DENOTES TEMPERATURE READING IN DEGREES CELSIUS.  
 
GAZ001>058-230600-  
NORTH GEORGIA  
 
CITY SKY/WX TMP DP RH WIND PRES REMARKS
 
ATLANTA CLOUDY 42 15 33 E9 30.29F  
ATHENS MOCLDY 39 16 39 E9 30.33R WCI 33  
CHAMBLEE CLOUDY 40 15 36 VRB3 30.29S  
PEACHTREE CITY FAIR 43 17 35 E5 30.30S  
ROME FAIR 42 15 33 SE3 30.26F  
WEST ATLANTA MOCLDY 43 14 31 E9 30.29F  
GAINESVILLE MOCLDY 38 16 40 E10 30.32S WCI 31  
CARTERSVILLE FAIR 43 14 31 E6 30.28F  
 
 
CITY SKY/WX TMP DP RH WIND PRES REMARKS
 
DALTON* FAIR 34 27 75 CALM 30.27F  
LAWRENCEVILLE* MOCLDY 40 16 37 E10 30.30F WCI 33  
MARIETTA FAIR 41 14 33 E9 30.28F  
KENNESAW* FAIR 41 15 35 E9G16 30.29F  
CANTON* FAIR 37 12 35 CALM 30.30S  
BLAIRSVILLE* FAIR 40 1 19 E5 30.27S  

 
 
GAZ059>098-102>109-230600-  
CENTRAL GEORGIA  
 
CITY SKY/WX TMP DP RH WIND PRES REMARKS
 
AUGUSTA-BUSH FAIR 33 23 66 NW5 30.35S WCI 29  
AUGUSTA-DANIEL FAIR 41 17 38 NE6 30.35S  
COLUMBUS FAIR 45 18 34 E10 30.26F  
MACON FAIR 39 23 52 NE7 30.29F WCI 34  
ROBINS AFB CLEAR 42 21 43 CALM 30.29F  
 
 
CITY SKY/WX TMP DP RH WIND PRES REMARKS
 
LAGRANGE* FAIR 43 13 30 E5 30.27F  
SYLVANIA* FAIR 41 26 55 NE9 30.30F  
MILLEDGEVILLE* MOCLDY 43 23 45 E5 30.33F  

 
 
GAZ099>101-110>166-230600-  
SOUTH GEORGIA  
 
CITY SKY/WX TMP DP RH WIND PRES REMARKS
 
SAVANNAH MOCLDY 44 31 60 N12 30.28F  
VALDOSTA MOCLDY 49 27 42 NE7 30.25F  
ALMA FAIR 43 27 53 VRB5 30.26F  
ST SIMONS FAIR 48 36 63 N13 30.23F  
ALBANY FAIR 46 23 40 E8 30.27F  
HUNTER AFB FAIR 43 30 61 N6 30.23F  
MOODY AFB MOCLDY 47 26 44 NE9 30.24F  
BRUNSWICK FAIR 46 35 66 N10 30.24S  
 
 
CITY SKY/WX TMP DP RH WIND PRES REMARKS
 
BAINBRIDGE* CLOUDY 47 26 42 E14 30.23F  
MOULTRIE* FAIR 46 25 42 CALM 30.26S  
VIDALIA* FAIR 41 23 48 N3 30.30S  
WAYCROSS* FAIR 44 23 43 NE6 30.26S  
DOUGLAS* FAIR 44 25 47 NE10 30.28F  

 
 
 
CLICK HERE TO GO TO PREVIOUS BULLETINS.

The Nexlab GA Page Main Text Page